Regional Weather Roundup
Issued by NWS

Home | Current Version | Previous Version | Graphics & Text | Print | Product List | Glossary On
Versions: 1 2 3 4 5 6 7 8 9 10 11 12 13 14 15 16 17 18 19 20 21 22 23 24 25 26 27 28 29 30 31 32 33 34 35 36 37 38 39 40 41 42 43 44 45 46 47 48 49 50
000
ASUS45 KSLC 251010
RWRUT

UTAH REGIONAL WEATHER ROUNDUP
NATIONAL WEATHER SERVICE SALT LAKE CITY UT
300 AM MST SUN FEB 25 2018

UTZ001>011-023>025-251100-

NORTHERN UTAH

CITY           SKY/WX    TMP DP  RH WIND       PRES   REMARKS
BRIGHAM CITY   CLOUDY    26  21  80 CALM      30.07R
HILL AFB       CLOUDY    23  16  74 W8        30.05R WCI  14
LOGAN          CLOUDY    26  18  71 CALM      30.04R
OGDEN          CLOUDY    24  16  71 SW6       30.05R WCI  17
SALT LAKE CITY MOCLDY    29  18  63 W15       30.09R WCI  18
WENDOVER       CLEAR     25   9  50 NW22      30.12F WCI  10
HEBER CITY     LGT SNOW  18  14  86 CALM      29.99R
WEST JORDAN    MOCLDY    22  20  92 W10       30.09R WCI  11

$$

UTZ011>015-024>027-251100-

CENTRAL/NORTHEAST UTAH

CITY           SKY/WX    TMP DP  RH WIND       PRES   REMARKS
PROVO AIRPORT  CLOUDY    25  21  86 NW9       30.09R WCI  15
MOAB/CANYONLAN CLOUDY    23  14  68 NW9       29.97S WCI  13
DELTA          CLOUDY    18  16  93 E3        30.11R
PRICE          CLEAR     11   8  88 CALM      29.94F
RICHFIELD      FOG       23  23 100 W7G13     30.05R VSB 1/2 WCI  15
VERNAL         CLEAR     11   1  64 W3        29.96S

$$

UTZ013>016-019>022-027-251100-

SOUTHERN UTAH

CITY           SKY/WX    TMP DP  RH WIND       PRES   REMARKS
BRYCE CANYON   PTCLDY    15  11  83 NW10      29.97S WCI   2
CEDAR CITY     MOCLDY    19  14  81 CALM      30.06R
MILFORD        LGT SNOW  23  18  81 N15       30.10R WCI  10
ST GEORGE      PTSUNNY   36  23  59 W8        30.15R WCI  30
HANKSVILLE     PTCLDY    19  12  73 CALM      30.03S
KANAB          CLEAR     19  16  86 CALM      30.12R
BLANDING         N/A     17  13  82 N8        30.01F WCI   7

$$

REGIONAL REPORTS     COLORADO/ARIZONA

CITY           SKY/WX    TMP DP  RH WIND       PRES   REMARKS
CRAIG, CO      CLOUDY     4   1  88 CALM      29.91F
GRAND JUNCTION PTCLDY    23  19  85 CALM      29.97R
RIFLE, CO      MOCLDY    15   9  76 SW6       29.95F WCI   6
MONTROSE, CO   MOCLDY    23  17  78 CALM      29.97S
CORTEZ, CO     CLOUDY    26  18  71 NW8       29.96S WCI  18
COLORADO CITY    N/A     19  14  79 CALM      30.12R
PAGE, AZ       CLEAR     32  19  58 CALM      30.04S
GRAND CANYON   CLOUDY    19  14  81 SW3       30.05R
KINGMAN, AZ    CLEAR     28  -1  28 N5        30.13R WCI  23
FLAGSTAFF, AZ  PTCLDY    10   4  76 CALM      30.02F

$$

REGIONAL REPORTS    NEVADA/IDAHO/WYOMING

CITY           SKY/WX    TMP DP  RH WIND       PRES   REMARKS
LAS VEGAS, NV  CLEAR     47  14  26 N22G29    30.16R
ELY, NY        CLEAR     11   2  67 N9        30.14R WCI  -2
ELKO, NV       CLEAR      8   3  80 W3        30.19R
POCATELLO, ID  CLOUDY    22  17  81 SW23      30.03R WCI   6
BURLEY, ID     CLEAR     20  13  74 W14G32    30.05R WCI   7
FORT BRIDGER,  FLURRIES  14  10  83 SW15      29.90S WCI  -1
EVANSTON, WY   PTCLDY    10   7  87 SW12      29.90R WCI  -5
ROCK SPRINGS,  MOCLDY    12   6  77 SW16      29.86S WCI  -5

$$



USA.gov is the U.S. government's official web portal to all federal, state and local government web resources and services.